EW3476 Weather Reports


time (UTC)temp
C
wind
direction
speed
KPH
gust
KPH
rain 1hr
cm
rain 24hr
cm
rain mn
cm
humidity
%
barometer
mb
20260906171803 36 94 6.4 19.3 0.00 0.00 0.00 42 1017.2
20260906170903 36 132 4.8 12.9 0.00 0.00 0.00 45 1017.3
20260906170218 36 120 4.8 12.9 0.00 0.00 0.00 45 1017.5
20260906165403 36 118 4.8 12.9 0.00 0.00 0.00 45 1017.6
20260906164503 35 51 4.8 14.5 0.00 0.00 0.00 47 1017.7
20260906163604 35 38 4.8 14.5 0.00 0.00 0.00 46 1017.7
20260906162703 35 63 6.4 14.5 0.00 0.00 0.00 47 1017.7
20260906161803 35 82 4.8 12.9 0.00 0.00 0.00 49 1017.8
20260906160904 34 134 4.8 12.9 0.00 0.00 0.00 48 1017.8
20260906160003 34 80 4.8 14.5 0.00 0.00 0.00 48 1017.9
20260906155403 34 66 4.8 12.9 0.00 0.00 0.00 49 1017.8
20260906154503 33 37 3.2 6.4 0.00 0.00 0.00 52 1017.7
20260906153603 33 58 3.2 11.3 0.00 0.00 0.00 54 1017.7
20260906152703 33 94 3.2 9.7 0.00 0.00 0.00 52 1017.7
20260906151803 32 73 1.6 6.4 0.00 0.00 0.00 54 1017.7
20260906150903 31 78 1.6 6.4 0.00 0.00 0.00 56 1017.6
20260906150003 31 88 1.6 4.8 0.00 0.00 0.00 58 1017.6
20260906145403 31 92 3.2 6.4 0.00 0.00 0.00 60 1017.6
20260906144503 31 98 1.6 6.4 0.00 0.00 0.00 62 1017.6
20260906143603 30 103 3.2 6.4 0.00 0.00 0.00 63 1017.6
20260906142703 30 139 1.6 6.4 0.00 0.00 0.00 65 1017.7
20260906141803 29 153 1.6 4.8 0.00 0.00 0.00 68 1017.8
20260906140903 28 154 1.6 4.8 0.00 0.00 0.00 69 1017.7
20260906140217 27 155 0.0 3.2 0.00 0.00 0.00 71 1017.6
20260906135403 27 155 1.6 4.8 0.00 0.00 0.00 75 1017.6
20260906134503 27 155 3.2 4.8 0.00 0.00 0.00 76 1017.6
20260906133603 26 0 0.0 0.0 0.00 0.00 0.00 79 1017.6
20260906132703 25 0 0.0 0.0 0.00 0.00 0.00 80 1017.6
20260906131803 25 0 0.0 0.0 0.00 0.00 0.00 83 1017.6
20260906130903 24 0 0.0 0.0 0.00 0.00 0.00 86 1017.5
20260906130003 23 0 0.0 0.0 0.00 0.00 0.00 86 1017.3
20260906125403 23 0 0.0 0.0 0.00 0.00 0.00 88 1017.3
20260906124503 22 0 0.0 0.0 0.00 0.00 0.00 91 1017.2
20260906123603 21 0 0.0 0.0 0.00 0.00 0.00 93 1017.1
20260906122703 21 0 0.0 0.0 0.00 0.00 0.00 93 1017.0
20260906121803 21 0 0.0 0.0 0.00 0.00 0.00 93 1016.9
20260906120903 21 148 1.6 4.8 0.00 0.00 0.00 94 1016.8
20260906120003 21 139 0.0 3.2 0.00 0.00 0.00 94 1016.9
20260906115403 21 0 0.0 0.0 0.00 0.00 0.00 94 1016.6
20260906114503 21 0 0.0 0.0 0.00 0.00 0.00 94 1016.5
20260906113817 21 0 0.0 0.0 0.00 0.00 0.00 95 1016.5
20260906112918 21 0 0.0 0.0 0.00 0.00 0.00 95 1016.4
20260906111803 21 0 0.0 0.0 0.00 0.00 0.00 94 1016.4
20260906110903 21 0 0.0 0.0 0.00 0.00 0.00 93 1016.4
20260906110003 21 0 0.0 0.0 0.00 0.00 0.00 93 1016.4
20260906105403 21 0 0.0 0.0 0.00 0.00 0.00 94 1016.3
20260906104503 21 0 0.0 0.0 0.00 0.00 0.00 95 1016.4
20260906103603 21 139 0.0 1.6 0.00 0.00 0.00 95 1016.3
20260906102703 21 139 0.0 1.6 0.00 0.00 0.00 94 1016.3
20260906101803 21 0 0.0 0.0 0.00 0.00 0.00 93 1016.2
20260906100903 21 0 0.0 0.0 0.00 0.00 0.00 93 1016.2
20260906100003 21 0 0.0 0.0 0.00 0.00 0.00 94 1016.2
20260906095403 21 0 0.0 0.0 0.00 0.00 0.00 93 1016.2
20260906094503 21 0 0.0 0.0 0.00 0.00 0.00 92 1016.2
20260906093603 21 0 0.0 0.0 0.00 0.00 0.00 92 1016.2
20260906092703 21 0 0.0 0.0 0.00 0.00 0.00 92 1016.1
20260906091803 22 0 0.0 0.0 0.00 0.00 0.00 92 1016.1
20260906090903 21 0 0.0 0.0 0.00 0.00 0.00 92 1016.1
20260906090003 21 0 0.0 0.0 0.00 0.00 0.00 92 1016.0
20260906085403 22 0 0.0 0.0 0.00 0.00 0.00 91 1015.9
20260906084718 22 0 0.0 0.0 0.00 0.00 0.00 90 1015.9
20260906083603 22 0 0.0 0.0 0.00 0.00 0.00 90 1015.9
20260906082703 22 0 0.0 0.0 0.00 0.00 0.00 89 1015.9
20260906081803 22 0 0.0 0.0 0.00 0.00 0.00 89 1015.9
20260906081117 22 0 0.0 0.0 0.00 0.00 0.00 90 1016.0
20260906080003 22 0 0.0 0.0 0.00 0.00 0.00 90 1015.9
20260906075403 22 0 0.0 0.0 0.00 0.00 0.00 90 1015.9
20260906074503 22 0 0.0 0.0 0.00 0.00 0.00 89 1015.8
20260906073603 22 0 0.0 0.0 0.00 0.00 0.00 88 1015.8
20260906072703 22 0 0.0 0.0 0.00 0.00 0.00 88 1015.9
20260906071803 23 138 0.0 3.2 0.00 0.00 0.00 85 1016.0
20260906070903 23 84 1.6 4.8 0.00 0.00 0.00 84 1016.0
20260906070003 23 65 0.0 3.2 0.00 0.00 0.00 86 1016.0
20260906065403 23 0 0.0 0.0 0.00 0.00 0.00 87 1016.0
20260906064503 23 65 0.0 1.6 0.00 0.00 0.00 86 1016.2
20260906063603 23 0 0.0 0.0 0.00 0.00 0.00 85 1016.2
20260906062918 23 0 0.0 0.0 0.00 0.00 0.00 84 1016.2
20260906061803 24 65 0.0 1.6 0.00 0.00 0.00 82 1016.3
20260906061117 24 65 0.0 1.6 0.00 0.00 0.00 82 1016.2
20260906060003 23 0 0.0 0.0 0.00 0.00 0.00 83 1016.1
20260906055403 24 0 0.0 0.0 0.00 0.00 0.00 82 1016.2
20260906054503 24 0 0.0 0.0 0.00 0.00 0.00 81 1016.1
20260906053603 25 0 0.0 0.0 0.00 0.00 0.00 79 1016.0
20260906052703 25 0 0.0 0.0 0.00 0.00 0.00 80 1016.1
20260906052017 25 0 0.0 0.0 0.00 0.00 0.00 80 1015.9
20260906050903 25 65 0.0 1.6 0.00 0.00 0.00 79 1015.9
20260906050004 24 66 0.0 3.2 0.00 0.00 0.00 81 1015.9
20260906045618 24 66 0.0 3.2 0.00 0.00 0.00 80 1016.0
20260906044503 25 0 0.0 0.0 0.00 0.00 0.00 78 1015.8
20260906043603 25 0 0.0 0.0 0.00 0.00 0.00 77 1015.9
20260906042703 25 0 0.0 0.0 0.00 0.00 0.00 77 1016.0
20260906041803 25 0 0.0 0.0 0.00 0.00 0.00 77 1016.0
20260906040903 25 0 0.0 0.0 0.00 0.00 0.00 76 1015.9
20260906040003 25 0 0.0 0.0 0.00 0.00 0.00 77 1015.9
20260906035403 25 0 0.0 0.0 0.00 0.00 0.00 77 1015.9
20260906034503 25 0 0.0 0.0 0.00 0.00 0.00 76 1015.9
20260906033603 26 0 0.0 0.0 0.00 0.00 0.00 73 1015.9
20260906032917 26 0 0.0 0.0 0.00 0.00 0.00 73 1015.8
20260906031803 26 0 0.0 0.0 0.00 0.00 0.00 73 1015.8
20260906030903 27 0 0.0 0.0 0.00 0.00 0.00 70 1015.7
20260906030004 27 0 0.0 0.0 0.00 0.00 0.00 69 1015.7
20260906025403 27 0 0.0 0.0 0.00 0.00 0.00 68 1015.6
20260906024718 28 0 0.0 0.0 0.00 0.00 0.00 66 1015.6
20260906023817 28 67 0.0 3.2 0.00 0.00 0.00 65 1015.6
20260906022703 28 65 1.6 3.2 0.00 0.00 0.00 63 1015.2
20260906021803 28 55 3.2 6.4 0.00 0.00 0.00 62 1015.3
20260906020903 29 62 1.6 4.8 0.00 0.00 0.00 61 1015.1
20260906020003 29 82 0.0 4.8 0.00 0.00 0.00 62 1015.0
20260906015403 30 81 1.6 8.0 0.00 0.00 0.00 58 1015.0
20260906014503 30 64 3.2 8.0 0.00 0.00 0.00 58 1014.7
20260906013817 30 61 4.8 8.0 0.00 0.00 0.00 57 1014.7
20260906012703 30 59 3.2 11.3 0.00 0.00 0.00 59 1014.6
20260906011803 29 45 1.6 11.3 0.00 0.00 0.00 60 1014.5
20260906010903 30 0 0.0 0.0 0.00 0.00 0.00 59 1014.4
20260906010003 30 32 0.0 3.2 0.00 0.00 0.00 56 1014.4
20260906005618 30 32 1.6 3.2 0.00 0.00 0.00 56 1014.3
20260906004503 30 32 0.0 1.6 0.00 0.00 0.00 55 1014.4
20260906003816 31 32 1.6 3.2 0.00 0.00 0.00 54 1014.4
20260906002703 31 36 1.6 6.4 0.00 0.00 0.00 52 1014.4
20260906001803 32 0 0.0 0.0 0.00 0.00 0.00 48 1014.3
20260906000903 32 0 0.0 0.0 0.00 0.00 0.00 47 1014.3
20260906000003 33 0 0.0 0.0 0.00 0.00 0.00 45 1014.3
20260905235618 33 0 0.0 0.0 0.00 0.00 0.00 45 1014.3
20260905234503 33 0 0.0 0.0 0.00 0.00 0.00 44 1014.3
20260905233818 33 0 0.0 0.0 0.00 0.00 0.00 43 1014.3
20260905232703 34 132 0.0 1.6 0.00 0.00 0.00 40 1014.2
20260905232017 35 132 0.0 3.2 0.00 0.00 0.00 38 1014.2
20260905230903 36 106 4.8 9.7 0.00 0.00 0.00 34 1014.3
20260905230003 35 65 1.6 6.4 0.00 0.00 0.00 37 1014.2
20260905225403 36 360 1.6 8.0 0.00 0.00 0.00 35 1014.2
20260905224503 36 64 4.8 12.9 0.00 0.00 0.00 33 1014.0
20260905223818 36 61 3.2 9.7 0.00 0.00 0.00 38 1014.0
20260905222703 36 45 1.6 8.0 0.00 0.00 0.00 37 1014.1
20260905221803 37 76 4.8 11.3 0.00 0.00 0.00 34 1014.1
20260905220903 37 98 6.4 12.9 0.00 0.00 0.00 34 1014.2
20260905220003 37 85 3.2 12.9 0.00 0.00 0.00 34 1014.3
20260905215403 37 85 4.8 12.9 0.00 0.00 0.00 37 1014.3
20260905214503 36 308 1.6 4.8 0.00 0.00 0.00 37 1014.4
20260905213817 36 312 3.2 6.4 0.00 0.00 0.00 37 1014.4
20260905212703 36 324 3.2 9.7 0.00 0.00 0.00 37 1014.5
20260905211803 37 284 1.6 4.8 0.00 0.00 0.00 37 1014.6
20260905210903 36 298 3.2 6.4 0.00 0.00 0.00 37 1014.8
20260905210003 36 7 4.8 14.5 0.00 0.00 0.00 38 1015.0
20260905205618 37 3 6.4 14.5 0.00 0.00 0.00 37 1015.1
20260905204503 37 63 6.4 14.5 0.00 0.00 0.00 36 1015.2
20260905203604 37 136 4.8 11.3 0.00 0.00 0.00 38 1015.3
20260905202703 37 109 4.8 11.3 0.00 0.00 0.00 40 1015.4
20260905202018 37 97 8.0 17.7 0.00 0.00 0.00 40 1015.4
20260905200903 37 81 4.8 14.5 0.00 0.00 0.00 39 1015.7
20260905200003 36 62 6.4 11.3 0.00 0.00 0.00 39 1015.8
20260905195403 37 81 4.8 12.9 0.00 0.00 0.00 39 1015.8
20260905194503 36 139 3.2 9.7 0.00 0.00 0.00 38 1016.0
20260905193603 36 125 3.2 9.7 0.00 0.00 0.00 41 1016.0
20260905192703 36 119 4.8 12.9 0.00 0.00 0.00 41 1016.1
20260905191803 36 32 6.4 19.3 0.00 0.00 0.00 43 1016.1
20260905191117 36 63 8.0 19.3 0.00 0.00 0.00 42 1016.3
20260905190218 36 89 6.4 17.7 0.00 0.00 0.00 42 1016.4
20260905185403 36 116 4.8 9.7 0.00 0.00 0.00 41 1016.6
20260905184503 35 85 4.8 12.9 0.00 0.00 0.00 43 1016.8
20260905183603 35 30 4.8 16.1 0.00 0.00 0.00 46 1016.9
20260905182703 34 108 3.2 16.1 0.00 0.00 0.00 48 1017.0
20260905181803 35 74 3.2 6.4 0.00 0.00 0.00 45 1017.1
20260905180903 35 350 4.8 12.9 0.00 0.00 0.00 46 1017.3
20260905180003 36 5 6.4 19.3 0.00 0.00 0.00 45 1017.4
20260905175403 35 18 4.8 17.7 0.00 0.00 0.00 45 1017.3
20260905174503 36 46 4.8 16.1 0.00 0.00 0.00 45 1017.5
20260905173603 35 34 8.0 14.5 0.00 0.00 0.00 45 1017.7
20260905172704 36 15 4.8 14.5 0.00 0.00 0.00 45 1017.8